Regional Weather Roundup
Issued by NWS

Current Version | Previous Version | Text Only | Print | Product List | Glossary On
Versions: 1 2 3 4 5 6 7 8 9 10 11 12 13 14 15 16 17 18 19 20 21 22 23 24 25 26 27 28 29 30 31 32 33 34 35 36 37 38 39 40 41 42 43 44 45 46 47 48 49 50
000
ASUS43 KIND 172259
RWRIN

WEATHER ROUNDUP FOR INDIANA
NATIONAL WEATHER SERVICE INDIANAPOLIS IN
700 PM EDT TUE OCT 17 2017

NOTE: "FAIR" INDICATES FEW OR NO CLOUDS BELOW 12,000 FEET WITH NO
SIGNIFICANT WEATHER AND/OR OBSTRUCTIONS TO VISIBILITY.

* - STATION DOES NOT REPORT WEATHER SUCH AS PRECIPITATION OR FOG.

+ - STATION NOT QUALITY CONTROLLED BY THE NATIONAL WEATHER SERVICE.
    USE DATA WITH CAUTION...ESPECIALLY DEWPOINT AND RELATIVE
    HUMIDITY OBSERVATIONS.

INZ001>003-010>013-019-020-180000-
NORTHWEST INDIANA

CITY           SKY/WX    TMP DP  RH WIND       PRES   REMARKS
GARY /AIRPORT/ PTCLDY    68  36  30 S8        30.14S
KNOX *+        CLEAR     63  37  39 SW8       30.17S
MICHIGAN CITY+ CLEAR     61  41  48 S7        30.15S
MONTICELLO +   CLEAR     61  38  43 S7        30.19S
RENSSELAER +   CLEAR     63  25  23 SW9       30.18S

$$

LMZ046-743>745-180000-
SOUTHERN LAKE MICHIGAN

STATION/POSITION TIME  TEMP    WIND        PRES    WAVE
                       AIR SEA DIR/SP/G            HT
                 (UTC) (F)     (DEG/KT/KT) (MB)    (FT)
BURNS HARBOR     2240   67     220/ 13/ 17 1020.7F
MICHIGAN CITY    2230   67     190/ 14/ 16   N/A
5NW MICH CITY    2240   63 58  210/ 10/ 14   N/A     2

$$

INZ004-005-014>016-021>024-180000-
NORTH CENTRAL INDIANA

CITY           SKY/WX    TMP DP  RH WIND       PRES   REMARKS
GOSHEN         CLEAR     61  39  44 S9        30.17S
PERU/GRISSOM   CLEAR     57  41  55 SW7       30.20S
SOUTH BEND     CLEAR     62  41  46 SW10      30.16S

$$

INZ006>009-017-018-025>027-180000-
NORTHEAST INDIANA

CITY           SKY/WX    TMP DP  RH WIND       PRES   REMARKS
FORT WAYNE     PTCLDY    59  39  47 SW8       30.20S
KENDALLVILLE + CLEAR     61  41  47 SW8       30.18S

$$

INZ028-029-035-036-043>045-051>053-180000-
WEST CENTRAL INDIANA

CITY           SKY/WX    TMP DP  RH WIND       PRES   REMARKS
GREENCASTLE +  CLEAR     59  37  44 CALM      30.24S
LAFAYETTE      NOT AVBL
TERRE HAUTE    CLEAR     60  40  47 S5        30.22F

$$

INZ030>032-037>040-046>048-054>057-064-065-180000-
CENTRAL INDIANA

CITY           SKY/WX    TMP DP  RH WIND       PRES   REMARKS
COLUMBUS       CLEAR     59  34  38 S5        30.25S
GREENWOOD *+   CLEAR     66  41  39 SW5       30.24S
INDIANAPOLIS   PTCLDY    59  40  49 SW7       30.23S
-EAGLE CREEK   CLEAR     62  38  40 S3        30.22S
KOKOMO +       CLEAR     60  41  49 SW8       30.22S
MT COMFORT *+  CLEAR     59  43  55 S5        30.24S
SHELBYVILLE    CLEAR     60  38  43 SW6       30.23S

$$

INZ033-034-041-042-049-050-058-059-180000-
EAST CENTRAL INDIANA

CITY           SKY/WX    TMP DP  RH WIND       PRES   REMARKS
MUNCIE         CLEAR     62  38  40 SW3       30.23S
RICHMOND +     CLEAR     57  37  47 SW5       30.26S

$$

INZ060-061-067>069-081>083-085>088-180000-
SOUTHWEST INDIANA

CITY           SKY/WX    TMP DP  RH WIND       PRES   REMARKS
EVANSVILLE     PTCLDY    63  44  50 CALM      30.25S
HUNTINGBURG +  CLEAR     61  43  51 S5        30.26S

$$

INZ062-063-066-070>080-084-089>092-180000-
SOUTH CENTRAL AND SOUTHEAST INDIANA

CITY           SKY/WX    TMP DP  RH WIND       PRES   REMARKS
BLOOMINGTON    CLEAR     58  41  53 S3        30.24S
MADISON *+     CLEAR     55  41  58 CALM      30.28S
SEYMOUR +      CLEAR     61  39  44 S3        30.25S

$$





USA.gov is the U.S. government's official web portal to all federal, state and local government web resources and services.